H1 CPF 2 NER 2021 4 11 9 101 01 glonass140 H2 1903001 9140 44299 2021 4 11 0 0 0 2021 4 14 23 45 0 900 1 1 0 0 0 1 H9 10 0 59315 0.00000 0 15270816.506 19924715.119 -4439853.565 10 0 59315 900.00000 0 15586122.656 20137819.315 -1253766.009 10 0 59315 1800.00000 0 15671045.972 20018950.201 1956717.461 10 0 59315 2700.00000 0 15483057.820 19603114.363 5129147.112 10 0 59315 3600.00000 0 14989005.561 18934808.410 8201856.347 10 0 59315 4500.00000 0 14166721.191 18065996.401 11115164.640 10 0 59315 5400.00000 0 13006176.460 17053792.930 13812537.701 10 0 59315 6300.00000 0 11510135.597 15957950.762 16241682.121 10 0 59315 7200.00000 0 9694278.380 14838259.742 18355553.381 10 0 59315 8100.00000 0 7586788.508 13751966.816 20113258.343 10 0 59315 9000.00000 0 5227424.602 12751325.448 21480835.714 10 0 59315 9900.00000 0 2666112.634 11881376.700 22431900.555 10 0 59315 10800.00000 0 -38881.920 11178054.055 22948141.766 10 0 59315 11700.00000 0 -2823126.798 10666690.079 23019664.270 10 0 59315 12600.00000 0 -5618451.209 10360986.161 22645170.443 10 0 59315 13500.00000 0 -8355530.170 10262487.119 21831978.231 10 0 59315 14400.00000 0 -10966519.302 10360581.621 20595876.131 10 0 59315 15300.00000 0 -13387632.461 10633027.650 18960817.974 10 0 59315 16200.00000 0 -15561556.977 11046980.622 16958463.184 10 0 59315 17100.00000 0 -17439607.952 11560481.083 14627570.732 10 0 59315 18000.00000 0 -18983533.380 12124339.875 12013257.690 10 0 59315 18900.00000 0 -20166896.189 12684342.151 9166135.677 10 0 59315 19800.00000 0 -20975976.435 13183678.189 6141340.800 10 0 59315 20700.00000 0 -21410156.405 13565499.273 2997474.946 10 0 59315 21600.00000 0 -21481772.767 13775491.351 -204521.947 10 0 59315 22500.00000 0 -21215441.893 13764358.025 -3402547.447 10 0 59315 23400.00000 0 -20646886.410 13490107.873 -6534537.507 10 0 59315 24300.00000 0 -19821311.955 12920048.836 -9539669.558 10 0 59315 25200.00000 0 -18791402.038 12032404.416 -12359544.411 10 0 59315 26100.00000 0 -17615015.080 10817482.008 -14939323.711 10 0 59315 27000.00000 0 -16352680.382 9278342.296 -17228800.538 10 0 59315 27900.00000 0 -15064998.345 7430939.453 -19183381.931 10 0 59315 28800.00000 0 -13810054.499 5303724.112 -20764963.747 10 0 59315 29700.00000 0 -12640956.397 2936723.590 -21942680.363 10 0 59315 30600.00000 0 -11603597.329 380135.829 -22693514.200 10 0 59315 31500.00000 0 -10734741.400 -2307505.831 -23002752.634 10 0 59315 32400.00000 0 -10060510.947 -5061521.889 -22864282.911 10 0 59315 33300.00000 0 -9595340.343 -7813539.658 -22280718.800 10 0 59315 34200.00000 0 -9341440.566 -10494108.313 -21263355.923 10 0 59315 35100.00000 0 -9288797.226 -13035367.367 -19831956.162 10 0 59315 36000.00000 0 -9415702.130 -15373657.392 -18014364.851 10 0 59315 36900.00000 0 -9689795.721 -17451963.878 -15845967.930 10 0 59315 37800.00000 0 -10069575.855 -19222092.090 -13368999.495 10 0 59315 38700.00000 0 -10506308.441 -20646481.905 -10631713.335 10 0 59315 39600.00000 0 -10946258.155 -21699586.771 -7687435.014 10 0 59315 40500.00000 0 -11333143.668 -22368759.400 -4593513.650 10 0 59315 41400.00000 0 -11610712.205 -22654607.871 -1410194.630 10 0 59315 42300.00000 0 -11725323.139 -22570808.212 1800563.579 10 0 59315 43200.00000 0 -11628430.079 -22143382.898 4976304.416 10 0 59315 44100.00000 0 -11278855.404 -21409477.280 8055295.291 10 0 59315 45000.00000 0 -10644760.325 -20415687.213 10977731.964 10 0 59315 45900.00000 0 -9705226.799 -19216010.018 13686901.263 10 0 59315 46800.00000 0 -8451384.322 -17869506.437 16130279.347 10 0 59315 47700.00000 0 -6887034.185 -16437773.005 18260544.296 10 0 59315 48600.00000 0 -5028744.992 -14982331.622 20036484.075 10 0 59315 49500.00000 0 -2905415.492 -13562045.925 21423783.224 10 0 59315 50400.00000 0 -557322.985 -12230672.327 22395674.244 10 0 59315 51300.00000 0 1965303.276 -11034647.303 22933442.457 10 0 59315 52200.00000 0 4604124.878 -10011202.186 23026775.953 10 0 59315 53100.00000 0 7294877.367 -9186882.804 22673955.000 10 0 59315 54000.00000 0 9969804.252 -8576534.247 21881878.237 10 0 59315 54900.00000 0 12560242.320 -8182791.704 20665925.652 10 0 59315 55800.00000 0 14999252.469 -7996097.505 19049661.186 10 0 59315 56700.00000 0 17224188.590 -7995242.713 17064380.438 10 0 59315 57600.00000 0 19179099.344 -8148410.107 14748511.597 10 0 59315 58500.00000 0 20816864.377 -8414674.693 12146880.361 10 0 59315 59400.00000 0 22100977.175 -8745898.905 9309852.021 10 0 59315 60300.00000 0 23006901.065 -9088943.171 6292366.182 10 0 59315 61200.00000 0 23522942.157 -9388099.257 3152881.935 10 0 59315 62100.00000 0 23650602.889 -9587644.180 -47747.033 10 0 59315 63000.00000 0 23404401.187 -9634407.135 -3247446.211 10 0 59315 63900.00000 0 22811162.453 -9480240.959 -6384120.487 10 0 59315 64800.00000 0 21908813.601 -9084293.267 -9396857.728 10 0 59315 65700.00000 0 20744729.229 -8414980.440 -12227112.324 10 0 59315 66600.00000 0 19373698.929 -7451579.832 -14819845.405 10 0 59315 67500.00000 0 17855600.730 -6185371.385 -17124599.279 10 0 59315 68400.00000 0 16252878.164 -4620278.520 -19096484.806 10 0 59315 69300.00000 0 14627926.877 -2772979.251 -20697061.974 10 0 59315 70200.00000 0 13040500.558 -672480.597 -21895096.137 10 0 59315 71100.00000 0 11545245.272 1640828.054 -22667174.705 10 0 59315 72000.00000 0 10189465.982 4116604.899 -22998171.745 10 0 59315 72900.00000 0 9011219.286 6696410.911 -22881550.960 10 0 59315 73800.00000 0 8037812.644 9315914.131 -22319500.605 10 0 59315 74700.00000 0 7284773.340 11907351.872 -21322897.158 10 0 59315 75600.00000 0 6755330.469 14402148.669 -19911097.938 10 0 59315 76500.00000 0 6440431.529 16733580.895 -18111566.258 10 0 59315 77400.00000 0 6319292.513 18839376.623 -15959336.092 10 0 59315 78300.00000 0 6360457.591 20664141.874 -13496326.558 10 0 59315 79200.00000 0 6523322.714 22161511.521 -10770519.653 10 0 59315 80100.00000 0 6760057.599 23295934.509 -7835017.677 10 0 59315 81000.00000 0 7017843.448 24044018.670 -4746999.383 10 0 59315 81900.00000 0 7241330.218 24395379.040 -1566596.000 10 0 59315 82800.00000 0 7375207.940 24352954.721 1644289.770 10 0 59315 83700.00000 0 7366781.801 23932782.091 4823197.725 10 0 59315 84600.00000 0 7168440.720 23163235.241 7908332.406 10 0 59315 85500.00000 0 6739914.063 22083767.163 10839768.821 10 0 59316 0.00000 0 6050220.443 20743206.215 13560617.603 10 0 59316 900.00000 0 5079225.513 19197680.857 16018127.051 10 0 59316 1800.00000 0 3818744.278 17508261.124 18164699.984 10 0 59316 2700.00000 0 2273139.392 15738416.552 19958807.322 10 0 59316 3600.00000 0 459392.562 13951397.084 21365780.971 10 0 59316 4500.00000 0 -1593355.343 12207646.638 22358472.037 10 0 59316 5400.00000 0 -3844775.836 10562356.460 22917763.054 10 0 59316 6300.00000 0 -6244796.125 9063259.239 23032925.629 10 0 59316 7200.00000 0 -8735454.717 7748754.536 22701817.812 10 0 59316 8100.00000 0 -11253093.180 6646441.988 21930918.310 10 0 59316 9000.00000 0 -13730794.327 5772121.740 20735197.462 10 0 59316 9900.00000 0 -16100966.899 5129302.292 19137827.631 10 0 59316 10800.00000 0 -18297971.007 4709234.978 17169738.402 10 0 59316 11700.00000 0 -20260676.722 4491472.666 14869024.551 10 0 59316 12600.00000 0 -21934850.686 4444928.711 12280217.402 10 0 59316 13500.00000 0 -23275272.490 4529391.518 9453432.647 10 0 59316 14400.00000 0 -24247493.384 4697431.103 6443409.997 10 0 59316 15300.00000 0 -24829164.206 4896617.690 3308462.296 10 0 59316 16200.00000 0 -25010877.140 5071959.143 109353.597 10 0 59316 17100.00000 0 -24796485.735 5168454.565 -3091872.778 10 0 59316 18000.00000 0 -24202889.278 5133656.277 -6233093.756 10 0 59316 18900.00000 0 -23259289.829 4920131.630 -9253310.538 10 0 59316 19800.00000 0 -22005952.373 4487719.927 -12093833.762 10 0 59316 20700.00000 0 -20492519.326 3805488.123 -14699426.428 10 0 59316 21600.00000 0 -18775949.521 2853301.259 -17019382.114 10 0 59316 22500.00000 0 -16918167.585 1622939.641 -19008517.126 10 0 59316 23400.00000 0 -14983522.008 118713.722 -20628056.743 10 0 59316 24300.00000 0 -13036158.260 -1642451.372 -21846397.936 10 0 59316 25200.00000 0 -11137417.015 -3631467.372 -22639733.197 10 0 59316 26100.00000 0 -9343366.594 -5808053.611 -22992522.836 10 0 59316 27000.00000 0 -7702573.091 -8122188.124 -22897806.057 10 0 59316 27900.00000 0 -6254201.725 -10515980.012 -22357344.184 10 0 59316 28800.00000 0 -5026529.064 -12925885.828 -21381592.727 10 0 59316 29700.00000 0 -4035928.407 -15285178.121 -19989502.298 10 0 59316 30600.00000 0 -3286370.593 -17526563.325 -18208151.780 10 0 59316 31500.00000 0 -2769460.737 -19584839.445 -16072220.600 10 0 59316 32400.00000 0 -2465008.497 -21399482.131 -13623310.221 10 0 59316 33300.00000 0 -2342106.783 -22917050.457 -10909128.154 10 0 59316 34200.00000 0 -2360672.073 -24093311.122 -7982550.802 10 0 59316 35100.00000 0 -2473379.730 -24894991.711 -4900584.015 10 0 59316 36000.00000 0 -2627910.826 -25301089.352 -1723242.481 10 0 59316 36900.00000 0 -2769413.703 -25303680.064 1487629.102 10 0 59316 37800.00000 0 -2843074.435 -24908195.394 4669568.982 10 0 59316 38700.00000 0 -2796685.903 -24133155.726 7760720.783 10 0 59316 39600.00000 0 -2583105.597 -23009372.673 10701040.597 10 0 59316 40500.00000 0 -2162497.290 -21578655.480 13433464.683 10 0 59316 41400.00000 0 -1504261.358 -19892077.113 15905014.855 10 0 59316 42300.00000 0 -588572.080 -18007873.978 18067820.168 10 0 59316 43200.00000 0 592542.846 -15989068.141 19880035.721 10 0 59316 44100.00000 0 2034625.878 -13900911.957 21306641.749 10 0 59316 45000.00000 0 3720740.317 -11808261.831 22320108.660 10 0 59316 45900.00000 0 5621950.255 -9772990.102 22900916.605 10 0 59316 46800.00000 0 7698309.939 -7851541.818 23037920.825 10 0 59316 47700.00000 0 9900321.815 -6092736.746 22728556.983 10 0 59316 48600.00000 0 12170803.295 -4535906.393 21978883.426 10 0 59316 49500.00000 0 14447085.748 -3209441.705 20803460.160 10 0 59316 50400.00000 0 16663455.438 -2129810.224 19225067.063 10 0 59316 51300.00000 0 18753736.387 -1301082.026 17274266.578 10 0 59316 52200.00000 0 20653909.131 -714982.876 14988818.691 10 0 59316 53100.00000 0 22304657.592 -351471.453 12412958.744 10 0 59316 54000.00000 0 23653739.043 -179815.833 9596550.968 10 0 59316 54900.00000 0 24658079.045 -160123.762 6594133.031 10 0 59316 55800.00000 0 25285504.206 -245262.427 3463869.135 10 0 59316 56700.00000 0 25516040.323 -383086.964 266431.063 10 0 59316 57600.00000 0 25342721.203 -518883.916 -2936171.852 10 0 59316 58500.00000 0 24771873.589 -597926.567 -6081791.449 10 0 59316 59400.00000 0 23822865.402 -568034.030 -9109345.125 10 0 59316 60300.00000 0 22527326.827 -382025.503 -11960002.495 10 0 59316 61200.00000 0 20927875.900 34.778 -14578330.962 10 0 59316 62100.00000 0 19076401.082 608897.879 -16913377.656 10 0 59316 63000.00000 0 17031971.943 1464579.181 -18919666.329 10 0 59316 63900.00000 0 14858464.881 2575263.168 -20558089.270 10 0 59316 64800.00000 0 12622002.801 3936712.130 -21796676.486 10 0 59316 65700.00000 0 10388315.596 5532205.725 -22611226.691 10 0 59316 66600.00000 0 8220131.765 7333015.901 -22985787.272 10 0 59316 67500.00000 0 6174710.201 9299399.208 -22912973.427 10 0 59316 68400.00000 0 4301615.356 11382066.529 -22394119.691 10 0 59316 69300.00000 0 2640828.875 13524069.937 -21439260.356 10 0 59316 70200.00000 0 1221276.602 15663028.571 -20066938.670 10 0 59316 71100.00000 0 59832.316 17733600.875 -18303848.024 10 0 59316 72000.00000 0 -839160.486 19670099.680 -16184311.830 10 0 59316 72900.00000 0 -1483829.516 21409140.367 -13749612.045 10 0 59316 73800.00000 0 -1894180.955 22892210.618 -11047179.493 10 0 59316 74700.00000 0 -2100999.323 24068053.312 -8129662.152 10 0 59316 75600.00000 0 -2144288.056 24894762.002 -5053890.199 10 0 59316 76500.00000 0 -2071318.409 25341500.498 -1879758.795 10 0 59316 77400.00000 0 -1934371.057 25389774.149 1330948.469 10 0 59316 78300.00000 0 -1788267.749 25034199.545 4515771.441 10 0 59316 79200.00000 0 -1687799.165 24282740.850 7612795.947 10 0 59316 80100.00000 0 -1685159.234 23156403.652 10561862.171 10 0 59316 81000.00000 0 -1827495.479 21688400.316 13305734.788 10 0 59316 81900.00000 0 -2154679.681 19922822.977 15791211.851 10 0 59316 82800.00000 0 -2697393.255 17912880.956 17970150.983 10 0 59316 83700.00000 0 -3475608.092 15718777.249 19800393.568 10 0 59316 84600.00000 0 -4497526.666 13405313.331 21246569.980 10 0 59316 85500.00000 0 -5759025.635 11039322.374 22280771.427 10 0 59317 0.00000 0 -7243626.030 8687037.414 22883076.792 10 0 59317 900.00000 0 -8922991.669 6411503.060 23041925.690 10 0 59317 1800.00000 0 -10757934.122 4270136.898 22754331.665 10 0 59317 2700.00000 0 -12699884.410 2312540.960 22025932.448 10 0 59317 3600.00000 0 -14692769.516 578651.225 20870876.940 10 0 59317 4500.00000 0 -16675217.398 -902698.773 19311551.191 10 0 59317 5400.00000 0 -18582999.637 -2114742.770 17378148.601 10 0 59317 6300.00000 0 -20351611.371 -3053236.317 15108091.962 10 0 59317 7200.00000 0 -21918882.152 -3726383.272 12545317.774 10 0 59317 8100.00000 0 -23227509.903 -4154238.291 9739435.581 10 0 59317 9000.00000 0 -24227412.926 -4367610.908 6744777.531 10 0 59317 9900.00000 0 -24877802.009 -4406517.443 3619355.560 10 0 59317 10800.00000 0 -25148885.951 -4318245.910 423745.511 10 0 59317 11700.00000 0 -25023138.657 -4155115.354 -2780080.896 10 0 59317 12600.00000 0 -24496073.940 -3972024.070 -5929953.934 10 0 59317 13500.00000 0 -23576494.516 -3823890.255 -8964710.553 10 0 59317 14400.00000 0 -22286203.527 -3763093.485 -11825382.482 10 0 59317 15300.00000 0 -20659189.422 -3837025.656 -14456344.379 10 0 59317 16200.00000 0 -18740317.069 -4085855.697 -16806399.429 10 0 59317 17100.00000 0 -16583578.763 -4540603.637 -18829780.889 10 0 59317 18000.00000 0 -14249977.407 -5221606.691 -20487049.590 10 0 59317 18900.00000 0 -11805129.591 -6137443.736 -21745869.509 10 0 59317 19800.00000 0 -9316688.174 -7284365.287 -22581645.855 10 0 59317 20700.00000 0 -6851691.741 -8646254.784 -22978012.713 10 0 59317 21600.00000 0 -4473951.357 -10195124.629 -22927160.261 10 0 59317 22500.00000 0 -2241583.620 -11892127.777 -22429994.658 10 0 59317 23400.00000 0 -204792.999 -13689043.739 -21496126.914 10 0 59317 24300.00000 0 1596004.016 -15530177.666 -20143690.447 10 0 59317 25200.00000 0 3131634.791 -17354593.475 -18398990.403 10 0 59317 26100.00000 0 4385145.891 -19098587.477 -16295991.216 10 0 59317 27000.00000 0 5352257.761 -20698298.516 -13875652.260 10 0 59317 27900.00000 0 6041280.666 -22092344.575 -11185124.550 10 0 59317 28800.00000 0 6472496.721 -23224374.313 -8276824.560 10 0 59317 29700.00000 0 6677035.661 -24045425.565 -5207403.791 10 0 59317 30600.00000 0 6695293.629 -24515990.914 -2036635.025 10 0 59317 31500.00000 0 6574963.650 -24607702.894 1173761.916 10 0 59317 32400.00000 0 6368763.068 -24304567.739 4361330.933 10 0 59317 33300.00000 0 6131955.890 -23603695.852 7464102.265 10 0 59317 34200.00000 0 5919776.462 -22515498.753 10421802.152 10 0 59317 35100.00000 0 5784864.710 -21063344.949 13177025.386 10 0 59317 36000.00000 0 5774822.232 -19282690.025 15676347.688 10 0 59317 36900.00000 0 5929992.893 -17219718.380 17871356.393 10 0 59317 37800.00000 0 6281561.588 -14929554.222 19719579.997 10 0 59317 38700.00000 0 6850051.039 -12474117.071 21185299.540 10 0 59317 39600.00000 0 7644279.412 -9919711.383 22240227.229 10 0 59317 40500.00000 0 8660822.074 -7334450.403 22864040.593 10 0 59317 41400.00000 0 9883999.726 -4785620.496 23044763.205 10 0 59317 42300.00000 0 11286393.258 -2337094.371 22778985.829 10 0 59317 43200.00000 0 12829864.005 -46898.943 22071924.732 10 0 59317 44100.00000 0 14467037.289 2034963.035 20937316.618 10 0 59317 45000.00000 0 16143188.089 3868348.965 19397152.476 10 0 59317 45900.00000 0 17798451.239 5424395.676 17481255.267 10 0 59317 46800.00000 0 19370265.046 6686464.630 15226709.052 10 0 59317 47700.00000 0 20795947.474 7650575.108 12677149.795 10 0 59317 48600.00000 0 22015298.307 8325308.432 9881930.507 10 0 59317 49500.00000 0 22973119.299 8731188.043 6895175.793 10 0 59317 50400.00000 0 23621547.246 8899561.808 3774743.125 10 0 59317 51300.00000 0 23922102.346 8871033.744 581110.063 10 0 59317 52200.00000 0 23847365.596 8693511.140 -2623791.754 10 0 59317 53100.00000 0 23382214.100 8419949.289 -5777773.537 10 0 59317 54000.00000 0 22524561.365 8105888.946 -8819594.263 10 0 59317 54900.00000 0 21285570.153 7806890.602 -11690150.144 10 0 59317 55800.00000 0 19689327.465 7575974.202 -14333625.294 10 0 59317 56700.00000 0 17771993.709 7461173.046 -16698580.938 10 0 59317 57600.00000 0 15580460.185 7503305.990 -18738961.593 10 0 59317 58500.00000 0 13170569.758 7734063.063 -20414998.160 10 0 59317 59400.00000 0 10604973.954 8174486.598 -21693989.896 10 0 59317 60300.00000 0 7950715.041 8833913.367 -22550949.614 10 0 59317 61200.00000 0 5276633.460 9709423.839 -22969098.968 10 0 59317 62100.00000 0 2650708.272 10785823.320 -22940203.743 10 0 59317 63000.00000 0 137441.261 12036157.242 -22464742.036 10 0 59317 63900.00000 0 -2204606.263 13422740.176 -21551901.527 10 0 59317 64800.00000 0 -4325021.365 14898656.323 -20219405.372 10 0 59317 65700.00000 0 -6183400.073 16409669.072 -18493169.607 10 0 59317 66600.00000 0 -7750783.146 17896459.577 -16406798.421 10 0 59317 67500.00000 0 -9010607.517 19297100.122 -14000926.947 10 0 59317 68400.00000 0 -9959134.371 20549657.795 -11322424.396 10 0 59317 69300.00000 0 -10605336.981 21594818.109 -8423473.450 10 0 59317 70200.00000 0 -10970254.532 22378417.289 -5360544.436 10 0 59317 71100.00000 0 -11085840.911 22853775.648 -2193285.090 10 0 59317 72000.00000 0 -10993358.894 22983732.965 1016651.318 10 0 59317 72900.00000 0 -10741389.635 22742299.570 4206815.576 10 0 59317 73800.00000 0 -10383543.506 22115853.320 7315185.186 10 0 59317 74700.00000 0 -9975970.829 21103832.161 10281375.257 10 0 59317 75600.00000 0 -9574779.240 19718893.497 13047813.433 10 0 59317 76500.00000 0 -9233467.835 17986534.245 15560855.738 10 0 59317 77400.00000 0 -9000487.066 15944188.191 17771821.691 10 0 59317 78300.00000 0 -8917027.440 13639839.078 19637929.206 10 0 59317 79200.00000 0 -9015129.963 11130207.773 21123112.063 10 0 59317 80100.00000 0 -9316197.249 8478589.366 22198705.280 10 0 59317 81000.00000 0 -9829967.214 5752429.962 22843986.525 10 0 59317 81900.00000 0 -10553991.685 3020743.201 23046564.476 10 0 59317 82800.00000 0 -11473641.282 351472.777 22802607.834 10 0 59317 83700.00000 0 -12562636.081 -2191091.146 22116911.625 10 0 59317 84600.00000 0 -13784079.918 -4548736.206 21002800.084 10 0 59317 85500.00000 0 -15091955.507 -6671494.043 19481868.304 10 0 59318 0.00000 0 -16433018.562 -8519460.487 17583567.486 10 0 59318 900.00000 0 -17749012.725 -10064195.748 15344640.950 10 0 59318 1800.00000 0 -18979113.656 -11289648.321 12808421.779 10 0 59318 2700.00000 0 -20062500.858 -12192564.335 10024003.624 10 0 59318 3600.00000 0 -20940950.728 -12782367.549 7045300.395 10 0 59318 4500.00000 0 -21561342.288 -13080514.426 3930011.697 10 0 59318 5400.00000 0 -21877970.876 -13119352.235 738513.239 10 0 59318 6300.00000 0 -21854572.356 -12940528.045 -2467307.057 10 0 59318 7200.00000 0 -21465972.156 -12593015.522 -5625245.001 10 0 59318 8100.00000 0 -20699288.791 -12130842.581 -8673985.199 10 0 59318 9000.00000 0 -19554639.896 -11610615.743 -11554291.842 10 0 59318 9900.00000 0 -18045319.503 -11088945.720 -14210161.796 10 0 59318 10800.00000 0 -16197437.345 -10619883.262 -16589917.338 10 0 59318 11700.00000 0 -14049033.497 -10252473.991 -18647216.883 10 0 59318 12600.00000 0 -11648703.768 -10028536.184 -20341963.536 10 0 59318 13500.00000 0 -9053791.808 -9980756.185 -21641093.391 10 0 59318 14400.00000 0 -6328222.129 -10131182.884 -22519227.744 10 0 59318 15300.00000 0 -3540063.547 -10490185.898 -22959176.014 10 0 59318 16200.00000 0 -758923.884 -11055922.614 -22952279.091 10 0 59318 17100.00000 0 1946715.978 -11814337.731 -22498585.880 10 0 59318 18000.00000 0 4512117.788 -12739696.389 -21606859.045 10 0 59318 18900.00000 0 6878742.507 -13795629.296 -20294409.317 10 0 59318 19800.00000 0 8996445.435 -14936646.464 -18586761.081 10 0 59318 20700.00000 0 10825318.335 -16110056.005 -16517155.430 10 0 59318 21600.00000 0 12337101.930 -17258207.108 -14125900.161 10 0 59318 22500.00000 0 13516110.210 -18320962.191 -11459579.406 10 0 59318 23400.00000 0 14359628.649 -19238293.275 -8570138.653 10 0 59318 24300.00000 0 14877770.844 -19952892.153 -5513863.585 10 0 59318 25200.00000 0 15092801.187 -20412683.211 -2350273.443 10 0 59318 26100.00000 0 15037953.866 -20573131.883 859048.411 10 0 59318 27000.00000 0 14755800.016 -20399250.555 4051662.820 10 0 59318 27900.00000 0 14296233.959 -19867216.711 7165497.452 10 0 59318 28800.00000 0 13714165.449 -18965534.888 10140058.855 10 0 59318 29700.00000 0 13067017.064 -17695693.511 12917609.700 10 0 59318 30600.00000 0 12412133.653 -16072289.255 15444288.057 10 0 59318 31500.00000 0 11804213.952 -14122614.158 17671146.937 10 0 59318 32400.00000 0 11292872.943 -11885723.203 19555094.526 10 0 59318 33300.00000 0 10920437.436 -9411021.685 21059717.771 10 0 59318 34200.00000 0 10720067.008 -6756431.456 22155974.519 10 0 59318 35100.00000 0 10714278.405 -3986212.211 22822742.220 10 0 59318 36000.00000 0 10913934.352 -1168527.751 23047213.944 10 0 59318 36900.00000 0 11317738.238 1627142.630 22825135.329 10 0 59318 37800.00000 0 11912255.093 4332641.644 22160878.891 10 0 59318 38700.00000 0 12672457.560 6883712.704 21067354.923 10 0 59318 39600.00000 0 13562773.900 9222414.628 19565760.975 10 0 59318 40500.00000 0 14538594.453 11299274.087 17685174.593 10 0 59318 41400.00000 0 15548174.080 13075088.221 15461996.640 10 0 59318 42300.00000 0 16534851.667 14522303.967 12939255.195 10 0 59318 43200.00000 0 17439494.560 15625918.039 10165782.432 10 0 59318 44100.00000 0 18203066.184 16383860.965 7195279.331 10 0 59318 45000.00000 0 18769209.689 16806849.743 4085285.313 10 0 59318 45900.00000 0 19086739.344 16917715.646 896071.846 10 0 59318 46800.00000 0 19111934.891 16750235.461 -2310519.280 10 0 59318 47700.00000 0 18810541.811 16347515.203 -5472270.857 10 0 59318 48600.00000 0 18159392.428 15759994.149 -8527795.408 10 0 59318 49500.00000 0 17147578.306 15043153.143 -11417727.225 10 0 59318 50400.00000 0 15777123.009 14255023.690 -14085877.864 10 0 59318 51300.00000 0 14063125.085 13453602.959 -16480332.361 10 0 59318 52200.00000 0 12033363.244 12694283.976 -18554464.506 10 0 59318 53100.00000 0 9727378.361 12027409.819 -20267850.879 10 0 59318 54000.00000 0 7195068.842 11496055.543 -21587065.483 10 0 59318 54900.00000 0 4494856.401 11134132.092 -22486338.999 10 0 59318 55800.00000 0 1691497.504 10964892.942 -22948069.315 10 0 59318 56700.00000 0 -1146369.276 10999907.308 -22963172.908 10 0 59318 57600.00000 0 -3948838.585 11238544.022 -22531269.696 10 0 59318 58500.00000 0 -6647407.653 11667988.634 -21660697.196 10 0 59318 59400.00000 0 -9177588.754 12263793.637 -20368353.198 10 0 59318 60300.00000 0 -11481355.963 12990939.051 -18679369.521 10 0 59318 61200.00000 0 -13509324.112 13805358.776 -16626622.854 10 0 59318 62100.00000 0 -15222569.059 14655868.181 -14250092.004 10 0 59318 63000.00000 0 -16594013.506 15486411.099 -11596074.080 10 0 59318 63900.00000 0 -17609320.768 16238530.568 -8716275.224 10 0 59318 64800.00000 0 -18267259.966 16853958.002 -5666794.186 10 0 59318 65700.00000 0 -18579528.515 17277210.242 -2507019.316 10 0 59318 66600.00000 0 -18570040.922 17458083.643 701538.367 10 0 59318 67500.00000 0 -18273715.679 17353938.772 3896452.247 10 0 59318 68400.00000 0 -17734813.348 16931678.393 7015602.664 10 0 59318 69300.00000 0 -17004897.843 16169334.722 9998390.116 10 0 59318 70200.00000 0 -16140508.723 15057198.760 12786914.816 10 0 59318 71100.00000 0 -15200644.074 13598444.125 15327099.354 10 0 59318 72000.00000 0 -14244161.110 11809219.403 17569732.634 10 0 59318 72900.00000 0 -13327204.480 9718205.374 19471415.387 10 0 59318 73800.00000 0 -12500770.409 7365655.859 20995389.825 10 0 59318 74700.00000 0 -11808508.569 4801962.353 22112238.488 10 0 59318 75600.00000 0 -11284853.015 2085802.062 22800440.176 10 0 59318 76500.00000 0 -10953559.417 -718054.198 23046773.597 10 0 59318 77400.00000 0 -10826708.654 -3541183.986 22846562.181 10 0 59318 78300.00000 0 -10904217.299 -6314105.062 22203756.385 10 0 59318 79200.00000 0 -11173874.570 -8968911.131 21130852.556 10 0 59318 80100.00000 0 -11611903.569 -11441843.886 19648650.226 10 0 59318 81000.00000 0 -12184023.060 -13675696.456 17785852.388 10 0 59318 81900.00000 0 -12846965.451 -15621950.322 15578515.938 10 0 59318 82800.00000 0 -13550387.752 -17242558.339 13069362.144 10 0 59318 83700.00000 0 -14239095.982 -18511301.040 10306959.457 10 0 59318 84600.00000 0 -14855490.297 -19414660.666 7344793.347 10 0 59318 85500.00000 0 -15342128.679 -19952177.001 4240240.193 99